Mojave, CA

1:17 PM PST on February 14, 2016 (GMT -0800)
Mojave

Weather History for KMHV - September, 2013

Change the Weather History Date:

Tuesday, September 17, 2013

  Actual Average Record
Temperature  
Mean Temperature 74 °F -  
Max Temperature 87 °F 87 °F 99 °F (1971)
Min Temperature 62 °F 60 °F 50 °F (1982)
Cooling Degree Days 10    
Growing Degree Days 24 (Base 50)    
Moisture  
Dew Point 40 °F    
Average Humidity 31    
Maximum Humidity 46    
Minimum Humidity 9    
Precipitation  
Precipitation 0.00 in - - ()
Sea Level Pressure  
Sea Level Pressure 29.83 in    
Wind  
Wind Speed 13 mph (West)    
Max Wind Speed 31 mph    
Max Gust Speed 39 mph    
Visibility 10 miles    
Events      
Averages and records for this station are not official NWS values.
T = Trace of Precipitation, MM = Missing Value Source: NWS Daily Summary

Daily Weather History Graph

Daily Weather History Graph

Search for Another Location

Airport or City:

Trip Planner

Search our weather history database for the weather conditions in past years. The results will help you decide how hot, cold, wet, or windy it might be!

Date:

Astronomy

Sep. 17, 2013 Rise Set
Actual Time 6:37 AM PDT 6:56 PM PDT
Civil Twilight 6:11 AM PDT 7:21 PM PDT
Nautical Twilight 5:42 AM PDT 7:51 PM PDT
Astronomical Twilight 5:11 AM PDT 8:21 PM PDT
Moon 5:44 PM PDT (9/17) 4:40 AM PDT (9/17)
Length of Visible Light 13h 09m
Length of Day
12h 18m
Waxing Gibbous, 96% of the Moon is Illuminated
Sep 17
Waxing Gibbous
Sep 19
Full
Sep 26
Last Quarter
Oct 4
New
Oct 11
First Quarter

Hourly Weather History & Observations

Time (PDT) Temp. Dew Point Humidity Pressure Visibility Wind Dir Wind Speed Gust Speed Precip Events Conditions
12:15 AM 73.4 °F 37.4 °F 27% 29.87 in 10.0 mi West 11.5 mph - N/A   Clear
12:35 AM 73.4 °F 39.2 °F 29% 29.87 in 10.0 mi West 10.4 mph - N/A   Clear
12:55 AM 73.4 °F 39.2 °F 29% 29.87 in 10.0 mi West 8.1 mph - N/A   Clear
1:15 AM 73.4 °F 39.2 °F 29% 29.87 in 10.0 mi WSW 10.4 mph - N/A   Clear
1:35 AM 71.6 °F 37.4 °F 29% 29.87 in 9.0 mi WSW 8.1 mph - N/A   Clear
1:55 AM 71.6 °F 37.4 °F 29% 29.87 in 10.0 mi WSW 6.9 mph - N/A   Clear
2:15 AM 71.6 °F 37.4 °F 29% 29.86 in 10.0 mi West 11.5 mph - N/A   Clear
2:35 AM 73.4 °F 39.2 °F 29% 29.86 in 10.0 mi West 11.5 mph - N/A   Clear
2:55 AM 71.6 °F 39.2 °F 31% 29.86 in 9.0 mi WNW 5.8 mph - N/A   Clear
3:15 AM 69.8 °F 37.4 °F 31% 29.85 in 10.0 mi WSW 5.8 mph - N/A   Clear
3:35 AM 71.6 °F 37.4 °F 29% 29.85 in 10.0 mi West 11.5 mph - N/A   Clear
3:55 AM 71.6 °F 39.2 °F 31% 29.85 in 10.0 mi West 10.4 mph - N/A   Clear
4:15 AM 69.8 °F 39.2 °F 33% 29.85 in 10.0 mi WSW 12.7 mph - N/A   Clear
4:35 AM 71.6 °F 41.0 °F 33% 29.85 in 10.0 mi WSW 10.4 mph - N/A   Clear
4:55 AM 68.0 °F 42.8 °F 40% 29.85 in 10.0 mi WSW 8.1 mph - N/A   Clear
5:15 AM 68.0 °F 44.6 °F 43% 29.85 in 10.0 mi West 9.2 mph - N/A   Clear
5:35 AM 68.0 °F 42.8 °F 40% 29.85 in 10.0 mi West 8.1 mph - N/A   Clear
5:55 AM 66.2 °F 41.0 °F 40% 29.85 in 10.0 mi SW 5.8 mph - N/A   Clear
6:15 AM 62.6 °F 39.2 °F 42% 29.86 in 10.0 mi WSW 4.6 mph - N/A   Clear
6:35 AM 62.6 °F 39.2 °F 42% 29.85 in 10.0 mi WSW 6.9 mph - N/A   Clear
6:55 AM 62.6 °F 39.2 °F 42% 29.86 in 10.0 mi WSW 4.6 mph - N/A   Clear
7:15 AM 64.4 °F 39.2 °F 40% 29.86 in 10.0 mi WSW 6.9 mph - N/A   Clear
7:35 AM 68.0 °F 44.6 °F 43% 29.86 in 10.0 mi WSW 8.1 mph - N/A   Clear
7:55 AM 69.8 °F 44.6 °F 40% 29.87 in 10.0 mi SW 6.9 mph - N/A   Clear
8:15 AM 73.4 °F 44.6 °F 36% 29.86 in 10.0 mi SSW 9.2 mph - N/A   Clear
8:35 AM 75.2 °F 44.6 °F 34% 29.86 in 10.0 mi WSW 10.4 mph - N/A   Clear
8:55 AM 75.2 °F 42.8 °F 31% 29.86 in 10.0 mi WSW 11.5 mph - N/A   Clear
9:15 AM 77.0 °F 44.6 °F 32% 29.86 in 10.0 mi WSW 9.2 mph - N/A   Clear
9:35 AM 78.8 °F 41.0 °F 26% 29.86 in 10.0 mi SW 10.4 mph - N/A   Clear
9:55 AM 80.6 °F 37.4 °F 21% 29.86 in 10.0 mi WSW 6.9 mph - N/A   Clear
10:15 AM 82.4 °F 19.4 °F 10% 29.85 in 10.0 mi SSW 13.8 mph - N/A   Clear
10:35 AM 82.4 °F 21.2 °F 10% 29.85 in 10.0 mi SSW 17.3 mph - N/A   Clear
10:55 AM 82.4 °F 24.8 °F 12% 29.85 in 10.0 mi SSW 15.0 mph - N/A   Clear
11:15 AM 84.2 °F 24.8 °F 11% 29.85 in 10.0 mi SSW 15.0 mph 20.7 mph N/A   Clear
11:35 AM 84.2 °F 24.8 °F 11% 29.84 in 10.0 mi SW 12.7 mph - N/A   Clear
11:55 AM 86.0 °F 23.0 °F 10% 29.83 in 10.0 mi SW 12.7 mph 20.7 mph N/A   Clear
12:15 PM 86.0 °F 23.0 °F 10% 29.82 in 10.0 mi SW 18.4 mph 24.2 mph N/A   Clear
12:35 PM 86.0 °F 19.4 °F 9% 29.82 in 10.0 mi SW 16.1 mph 25.3 mph N/A   Clear
12:55 PM 86.0 °F 37.4 °F 18% 29.81 in 10.0 mi WNW 11.5 mph 20.7 mph N/A   Clear
1:15 PM 86.0 °F 37.4 °F 18% 29.81 in 10.0 mi West 17.3 mph - N/A   Clear
1:35 PM 86.0 °F 37.4 °F 18% 29.80 in 10.0 mi West 16.1 mph 23.0 mph N/A   Clear
1:55 PM 86.0 °F 39.2 °F 19% 29.79 in 10.0 mi West 13.8 mph 21.9 mph N/A   Clear
2:15 PM 87.8 °F 37.4 °F 17% 29.79 in 10.0 mi WNW 18.4 mph 26.5 mph N/A   Clear
2:35 PM 87.8 °F 35.6 °F 16% 29.78 in 10.0 mi WNW 23.0 mph 26.5 mph N/A   Clear
2:55 PM 86.0 °F 35.6 °F 17% 29.77 in 10.0 mi WNW 24.2 mph 29.9 mph N/A   Clear
3:15 PM 86.0 °F 35.6 °F 17% 29.77 in 10.0 mi West 25.3 mph 32.2 mph N/A   Clear
3:35 PM 84.2 °F 39.2 °F 20% 29.76 in 10.0 mi West 26.5 mph 32.2 mph N/A   Clear
3:55 PM 84.2 °F 41.0 °F 22% 29.76 in 10.0 mi WNW 25.3 mph 32.2 mph N/A   Clear
4:15 PM 82.4 °F 42.8 °F 25% 29.76 in 10.0 mi West 26.5 mph 36.8 mph N/A   Clear
4:35 PM 82.4 °F 44.6 °F 26% 29.76 in 10.0 mi West 31.1 mph 39.1 mph N/A   Clear
4:55 PM 80.6 °F 44.6 °F 28% 29.77 in 10.0 mi West 25.3 mph 35.7 mph N/A   Clear
5:15 PM 78.8 °F 44.6 °F 30% 29.76 in 10.0 mi West 31.1 mph 36.8 mph N/A   Clear
5:35 PM 78.8 °F 44.6 °F 30% 29.77 in 10.0 mi WNW 27.6 mph 33.4 mph N/A   Clear
5:55 PM 77.0 °F 44.6 °F 32% 29.78 in 10.0 mi West 18.4 mph 33.4 mph N/A   Clear
6:15 PM 75.2 °F 44.6 °F 34% 29.78 in 10.0 mi West 25.3 mph 32.2 mph N/A   Clear
6:35 PM 75.2 °F 44.6 °F 34% 29.79 in 10.0 mi West 19.6 mph 29.9 mph N/A   Clear
6:55 PM 73.4 °F 46.4 °F 38% 29.79 in 10.0 mi West 20.7 mph 27.6 mph N/A   Clear
7:15 PM 71.6 °F 46.4 °F 41% 29.79 in 10.0 mi West 17.3 mph 25.3 mph N/A   Clear
7:35 PM 71.6 °F 46.4 °F 41% 29.79 in 10.0 mi West 23.0 mph 32.2 mph N/A   Clear
7:55 PM 71.6 °F 46.4 °F 41% 29.80 in 10.0 mi West 19.6 mph 33.4 mph N/A   Clear
8:15 PM 69.8 °F 46.4 °F 43% 29.80 in 10.0 mi West 19.6 mph 28.8 mph N/A   Clear
8:35 PM 69.8 °F 46.4 °F 43% 29.81 in 10.0 mi West 21.9 mph 27.6 mph N/A   Clear
8:55 PM 69.8 °F 46.4 °F 43% 29.82 in 10.0 mi West 16.1 mph 25.3 mph N/A   Clear
9:15 PM 68.0 °F 46.4 °F 46% 29.82 in 10.0 mi West 18.4 mph 25.3 mph N/A   Clear
9:35 PM 68.0 °F 46.4 °F 46% 29.82 in 10.0 mi West 21.9 mph 32.2 mph N/A   Clear
9:55 PM 68.0 °F 46.4 °F 46% 29.81 in 10.0 mi West 21.9 mph 29.9 mph N/A   Clear
10:15 PM 68.0 °F 46.4 °F 46% 29.80 in 10.0 mi West 29.9 mph 38.0 mph N/A   Clear
10:35 PM 68.0 °F 44.6 °F 43% 29.81 in 10.0 mi West 23.0 mph 39.1 mph N/A   Clear
10:55 PM 68.0 °F 44.6 °F 43% 29.82 in 10.0 mi West 17.3 mph 21.9 mph N/A   Clear
11:15 PM 68.0 °F 44.6 °F 43% 29.83 in 10.0 mi South 4.6 mph - N/A   Clear
11:35 PM 68.0 °F 44.6 °F 43% 29.83 in 10.0 mi NW 17.3 mph 27.6 mph N/A   Clear
11:55 PM 68.0 °F 44.6 °F 43% 29.81 in 10.0 mi West 26.5 mph 32.2 mph N/A   Clear